JIA5631 KDFW-KMGM

Flight info

Callsign JIA5631
Flight time N/A
Altitude 39000
Route FORCK3 FORCK DEBII MHZ KWANE ARNNY
Aircraft CRJ7/M-SDFGIRWY/S

Departure

Time 2026-04-30 19:49
Airport Dallas Fort Worth International Airport (KDFW)

Arrival

Time N/A
Airport Montgomery Regional (Dannelly Field) Airport (KMGM)
Time Latitude Longitude Altitude Speed Heading
2026-04-30 19:31 32.88746 -97.03735 566 ft 0 kts 345°
2026-04-30 19:39 32.88747 -97.03735 566 ft 0 kts 345°
2026-04-30 19:39 32.88741 -97.03734 566 ft 2 kts 345°
2026-04-30 19:39 32.88727 -97.03729 566 ft 2 kts 345°
2026-04-30 19:39 32.88712 -97.03727 566 ft 2 kts 16°
2026-04-30 19:40 32.88700 -97.03736 566 ft 2 kts 52°
2026-04-30 19:40 32.88694 -97.03749 566 ft 1 kts 79°
2026-04-30 19:40 32.88694 -97.03751 566 ft 0 kts 79°
2026-04-30 19:44 32.88723 -97.03638 566 ft 8 kts 67°
2026-04-30 19:44 32.88696 -97.03579 567 ft 10 kts 145°
2026-04-30 19:44 32.88626 -97.03565 568 ft 10 kts 171°
2026-04-30 19:44 32.88584 -97.03516 569 ft 9 kts 130°
2026-04-30 19:45 32.88511 -97.03471 569 ft 10 kts 129°
2026-04-30 19:45 32.88500 -97.03371 569 ft 17 kts 90°
2026-04-30 19:45 32.88494 -97.03232 569 ft 11 kts 111°
2026-04-30 19:45 32.88428 -97.03201 567 ft 11 kts 180°
2026-04-30 19:46 32.88326 -97.03203 566 ft 15 kts 180°
2026-04-30 19:46 32.88221 -97.03202 564 ft 14 kts 180°
2026-04-30 19:46 32.88127 -97.03201 562 ft 12 kts 179°
2026-04-30 19:46 32.88065 -97.03188 561 ft 7 kts 142°
2026-04-30 19:47 32.88050 -97.03145 561 ft 4 kts 93°
2026-04-30 19:47 32.88049 -97.03130 561 ft 1 kts 92°
2026-04-30 19:47 32.88049 -97.03083 562 ft 7 kts 90°
2026-04-30 19:47 32.88050 -97.03035 562 ft 5 kts 76°
2026-04-30 19:48 32.88084 -97.03008 562 ft 5 kts
2026-04-30 19:48 32.88094 -97.03007 562 ft 0 kts
2026-04-30 19:48 32.88097 -97.03007 562 ft 0 kts
2026-04-30 19:48 32.88106 -97.03007 562 ft 0 kts
2026-04-30 19:49 32.88201 -97.03006 563 ft 48 kts
2026-04-30 19:49 32.89881 -97.03048 947 ft 160 kts 359°
2026-04-30 19:49 32.91059 -97.03194 1426 ft 190 kts 358°
2026-04-30 19:50 32.92407 -97.03382 2369 ft 193 kts 358°
2026-04-30 19:50 32.93599 -97.03539 3654 ft 178 kts 358°
2026-04-30 19:50 32.94833 -97.03200 4299 ft 195 kts 38°
2026-04-30 19:50 32.95967 -97.02278 5105 ft 208 kts 23°
2026-04-30 19:51 32.97351 -97.01643 5904 ft 222 kts 19°
2026-04-30 19:51 32.98842 -97.01021 6707 ft 234 kts 16°
2026-04-30 19:51 33.00418 -97.00360 7519 ft 247 kts 22°
2026-04-30 19:51 33.01687 -96.98923 8309 ft 265 kts 60°
2026-04-30 19:52 33.02057 -96.96783 9105 ft 278 kts 96°
2026-04-30 19:52 33.01695 -96.94503 9942 ft 285 kts 100°
2026-04-30 19:52 33.01411 -96.92156 10721 ft 294 kts 97°
2026-04-30 19:52 33.01193 -96.89683 11499 ft 302 kts 96°
2026-04-30 19:53 33.00993 -96.87185 12254 ft 309 kts 97°
2026-04-30 19:53 33.00370 -96.84753 12972 ft 312 kts 119°
2026-04-30 19:53 32.99423 -96.82423 13678 ft 319 kts 119°
2026-04-30 19:53 32.98447 -96.79999 14321 ft 328 kts 119°
2026-04-30 19:54 32.97464 -96.77538 14961 ft 336 kts 120°
2026-04-30 19:54 32.96444 -96.74989 15587 ft 344 kts 120°
2026-04-30 19:54 32.95394 -96.72372 16119 ft 354 kts 121°
2026-04-30 19:54 32.94331 -96.69705 16659 ft 363 kts 121°
2026-04-30 19:55 32.93241 -96.66984 17192 ft 371 kts 122°
2026-04-30 19:55 32.92112 -96.64164 17721 ft 379 kts 122°
2026-04-30 19:55 32.90968 -96.61331 18175 ft 388 kts 122°
2026-04-30 19:55 32.89800 -96.58422 18632 ft 396 kts 122°
2026-04-30 19:56 32.88587 -96.55405 19054 ft 405 kts 121°
2026-04-30 19:56 32.87364 -96.52355 19506 ft 412 kts 121°
2026-04-30 19:56 32.86129 -96.49284 19954 ft 418 kts 121°
2026-04-30 19:56 32.84855 -96.46133 20394 ft 424 kts 121°
2026-04-30 19:57 32.83581 -96.42984 20821 ft 430 kts 121°
2026-04-30 19:57 32.82279 -96.39754 21259 ft 435 kts 121°
2026-04-30 19:57 32.81072 -96.36467 21648 ft 444 kts 113°
2026-04-30 19:57 32.80288 -96.32805 22067 ft 453 kts 102°
2026-04-30 19:58 32.80009 -96.29076 22468 ft 459 kts 91°
2026-04-30 19:58 32.80251 -96.25288 22864 ft 463 kts 81°
2026-04-30 19:58 32.80793 -96.21523 23251 ft 467 kts 81°
2026-04-30 19:58 32.81274 -96.17683 23660 ft 470 kts 82°
2026-04-30 19:59 32.81712 -96.13860 24050 ft 473 kts 82°
2026-04-30 19:59 32.82126 -96.09955 24428 ft 476 kts 83°
2026-04-30 19:59 32.82941 -96.02125 25164 ft 484 kts 82°
2026-04-30 20:00 32.83349 -95.98122 25427 ft 491 kts 82°
2026-04-30 20:00 32.83765 -95.94098 25693 ft 496 kts 82°
2026-04-30 20:00 32.84175 -95.90036 25999 ft 501 kts 82°
2026-04-30 20:00 32.84601 -95.85887 26295 ft 506 kts 82°
2026-04-30 20:01 32.85439 -95.77531 26849 ft 516 kts 82°
2026-04-30 20:01 32.85860 -95.73320 27147 ft 520 kts 82°
2026-04-30 20:01 32.86295 -95.69018 27454 ft 524 kts 81°
2026-04-30 20:02 32.87153 -95.60373 28009 ft 532 kts 82°
2026-04-30 20:02 32.87589 -95.55965 28293 ft 536 kts 82°
2026-04-30 20:03 32.88454 -95.47158 28819 ft 544 kts 81°
2026-04-30 20:03 32.88896 -95.42687 29068 ft 546 kts 81°
2026-04-30 20:03 32.89333 -95.38177 29338 ft 547 kts 81°
2026-04-30 20:03 32.89769 -95.33739 29613 ft 548 kts 82°
2026-04-30 20:04 32.90205 -95.29208 29849 ft 549 kts 82°
2026-04-30 20:04 32.90641 -95.24711 30088 ft 550 kts 82°
2026-04-30 20:04 32.91072 -95.20232 30335 ft 550 kts 82°
2026-04-30 20:05 32.91934 -95.11193 30833 ft 551 kts 82°
2026-04-30 20:05 32.92362 -95.06666 31082 ft 551 kts 81°
2026-04-30 20:05 32.93224 -94.97588 31582 ft 553 kts 82°
2026-04-30 20:06 32.93643 -94.93092 31837 ft 553 kts 82°
2026-04-30 20:06 32.94066 -94.88551 32090 ft 554 kts 81°
2026-04-30 20:06 32.94488 -94.83981 32352 ft 554 kts 82°
2026-04-30 20:06 32.94911 -94.79485 32605 ft 554 kts 82°
2026-04-30 20:07 32.95338 -94.74903 32840 ft 555 kts 82°
2026-04-30 20:07 32.95746 -94.70353 33059 ft 555 kts 82°
2026-04-30 20:07 32.96585 -94.61283 33600 ft 554 kts 82°
2026-04-30 20:08 32.96994 -94.56698 33863 ft 555 kts 82°
2026-04-30 20:08 32.97406 -94.52155 34103 ft 556 kts 81°
2026-04-30 20:08 32.97816 -94.47620 34353 ft 556 kts 82°
2026-04-30 20:08 32.98225 -94.43027 34626 ft 556 kts 82°
2026-04-30 20:09 32.98633 -94.38475 34933 ft 555 kts 81°
2026-04-30 20:09 32.99039 -94.33961 35209 ft 552 kts 82°
2026-04-30 20:09 32.99535 -94.24956 35726 ft 544 kts 91°
2026-04-30 20:10 32.99037 -94.16047 36280 ft 537 kts 94°
2026-04-30 20:10 32.98778 -94.11673 36559 ft 535 kts 94°
2026-04-30 20:10 32.98523 -94.07285 36843 ft 533 kts 94°